Погода в Порт-Линкольне

Австралия     34°44′18″S   135°51′12″E
темп.,
°C
ветер,
м/с
пор.,
м/с
влажн.,
%
обл.,
%
осадки,
мм/ч
давл.,
гПа
погр.,
м
4 июля, пн
пн400:30+11юв4769100 0.2 1029425
03:30+11юв4767100 0.3 1029345
06:30+11ююв4771100 0.1 1029318
09:30+12в5876100 0.3 1030609
12:30+14вюв585812 0.1 10291349
15:30+14юв576368 0.1 1028881
18:30+11юв358414 0.1 1029169
21:30+11юв59830 0.2 1029276
5 июля, вт
вт500:30+11вюв49880 0.1 1028247
03:30+11вюв49899 0.1 1028236
06:30+11в48890 0.1 1028194
09:30+13в69720 0.1 1027806
12:30+14всв67640 0.0 1027860
15:30+13всв45660 0.0 1025624
18:30+10всв34830 0.0 102583
21:30+9св33850 0.0 102574
6 июля, ср
ср600:30+9ссв23870 0.0 102446
03:30+7ссз33850 0.0 102357
06:30+6сз34870 0.0 102370
09:30+11сз36750 0.0 1024211
12:30+15з57522 0.0 10231395
15:30+15зюз675815 0.0 10221178
18:30+12ююз488381 0.6 1023369
21:30+12ююз4871100 0.7 1024411
7 июля, чт
чт700:30+11ю4666100 0.0 1024212
03:30+12ю4870100 0.1 1025392
06:30+12ю5865100 0.1 1026485
09:30+13ю676440 0.2 10271093
12:30+14ююв675596 0.0 10271481
15:30+13ююв5768100 0.1 10261138
18:30+12ююв5973100 0.2 1026650
21:30+12ююв4872100 0.4 1027480
8 июля, пт
пт800:30+12ююв586890 0.4 1026500
03:30+12ююв5873100 0.6 1026452
06:30+12ююв586899 0.3 1027423
09:30+12юв4665100 0.4 1028813
12:30+13ююв456381 0.3 10271117
15:30+13ююв456168 1.1 10261177
18:30+10ююв478060 0.3 1027226
21:30+10ююв477426 0.5 1029212